Regional Weather Roundup
Issued by NWS

Home | Current Version | Previous Version | Graphics & Text | Print | Product List | Glossary On
Versions: 1 2 3 4 5 6 7 8 9 10 11 12 13 14 15 16 17 18 19 20 21 22 23 24 25 26 27 28 29 30 31 32 33 34 35 36 37 38 39 40 41 42 43 44 45 46 47 48 49 50
859
ASUS45 KBOU 231410
RWRCO

WEATHER ROUNDUP FOR COLORADO
NATIONAL WEATHER SERVICE PUEBLO CO
700 AM MST FRI FEB 23 2018

NOTE: "FAIR" INDICATES FEW OR NO CLOUDS BELOW 12000 FEET WITH NO
SIGNIFICANT WEATHER AND/OR OBSTRUCTIONS TO VISIBILITY.

COZ001>005-013-030-031-231500-
...NORTHWEST COLORADO...

CITY           SKY/WX    TMP DP  RH WIND       PRES   REMARKS
CRAIG          MOCLDY    18  13  80 E12       29.94F WCI   5
HAYDEN         PTCLDY    12   9  87 SE12      29.95S WCI  -2
MEEKER         PTCLDY     5   1  83 MISG      29.91F
RABBIT EARS PA NOT AVBL
STEAMBOAT SPGS FAIR      14  13  96 CALM      29.94S
WALDEN         CLOUDY     9   5  85 SE5       29.93R WCI   0
$$

COZ006>008-011-231500-
...WEST CENTRAL VALLEYS...

CITY           SKY/WX    TMP DP  RH WIND       PRES   REMARKS
GRAND JUNCTION MOCLDY    28  22  78 E14       29.94S WCI  17
MONTROSE       PTCLDY    21  13  71 SE12      29.99F WCI   9
EAGLE          PTCLDY    18  15  88 CALM      30.00S
RIFLE          CLOUDY    20  18  92 SW6       29.98R WCI  12
DELTA          NOT AVBL
NUCLA          PTSUNNY   23  10  58 CALM      29.98R
$$

COZ017>023-064>068-231500-
...SOUTHWEST COLORADO...

CITY           SKY/WX    TMP DP  RH WIND       PRES   REMARKS
DURANGO        CLEAR     10   8  92 E7        30.03S WCI  -1
CORTEZ         MOCLDY    24  11  57 S8        30.00S WCI  15
PAGOSA SPRINGS FAIR     N/A N/A N/A CALM      30.04S
TELLURIDE      PTCLDY    17   2  52 S10G20    29.92S WCI   4
WOLF CREEK PAS CLOUDY     1   0  92 S18G30    29.92R WCI -19
$$

COZ009-010-012-014-032>034-037-058>063-231500-
...CENTRAL COLORADO...

CITY           SKY/WX    TMP DP  RH WIND       PRES   REMARKS
ASPEN          CLOUDY    16  12  84 S3        29.91S
BUENA VISTA    FAIR      10   5  81 CALM      29.97S
COPPER MTN     CLOUDY     7   0  72 S10       29.83R HAZE    WCI  -8
BERTHOUD PASS  FAIR       0 -11  60 SW5       29.82R WCI -10
COTTONWOOD PAS PTCLDY    16  12  86 CALM      29.91R
GUNNISON       PTCLDY     0  -5  79 CALM      30.00S
KREMMLING      LGT SNOW  19  14  79 CALM      29.97S
LEADVILLE      LGT SNOW   5   2  87 E5        29.88S VSB 1   WCI  -4
MONARCH PASS     N/A      1  -2  85 SW20      29.94S WCI -20
SALIDA         FAIR      14   9  80 CALM      30.06R
SUNLIGHT       LGT SNOW   5   1  85 S10G17    29.87F WCI -10
WILKERSON PASS CLEAR      5   1  85 SW9G20    29.88S WCI  -9
$$

COZ069>075-231500-
...SAN LUIS VALLEY/SANGRE DE CRISTO MOUNTAINS...

CITY           SKY/WX    TMP DP  RH WIND       PRES   REMARKS
ALAMOSA        PTCLDY    17   6  62 S9        30.00R WCI   6
DEL NORTE      FAIR       8   4  84 SW3       30.00R
LA VETA PASS   CLEAR     12   3  67 S25G40    30.02R WCI  -8
SAGUACHE       CLEAR      3   0  85 NW9       30.01R WCI -11
$$

COZ035-036-038>040-231500-
...NORTHERN COLORADO FRONT RANGE...

CITY           SKY/WX    TMP DP  RH WIND       PRES   REMARKS
DENVER INTL AP FOG       11   7  84 SW6       30.04R VSB 1/2 WCI   1
DMNS CITY PARK NOT AVBL
AURORA         CLOUDY    12  12  97 SW3       30.04R FOG
FRONT RANGE AP CLOUDY    16  12  86 W6        30.04R FOG     WCI   7
ERIE MUNI ARPT FAIR       4   1  87 S3        30.12R
BOULDER MUN AP FAIR      14  10  85 S3        30.04S
CENTENNIAL     PTCLDY    12  11  95 W3        30.02R HAZE
BROOMFIELD     MOCLDY    12  10  92 W7        30.03S WCI   2
LOVELAND       CLEAR     11   8  88 CALM      30.06R FOG
LONGMONT       FAIR      13   9  85 CALM      30.08R
$$

COZ041-046-047-076>085-087-088-231500-
...PIKES PEAK/PALMER DIVIDE AND SOUTHERN FOOTHILLS...

CITY           SKY/WX    TMP DP  RH WIND       PRES   REMARKS
COLO. SPRINGS  PTCLDY    13   9  84 NE6       30.01S WCI   4
A. F. ACADEMY  PTCLDY    11   7  84 N7        29.99S WCI   0
SCHRIEVER AFB  NOT AVBL
CHEYENNE MTN   NOT AVBL
ELLICOTT         N/A    N/A N/A N/A CALM        N/A
FALCON         FAIR      11   8  89 CALM      29.99S
FORT CARSON    CLEAR     14  10  85 N5        30.01S WCI   6
LIMON          CLEAR      2   0  91 CALM      30.05R
MONUMENT HILL  CLEAR     14  10  85 SW9       29.98R WCI   2
CANON CITY     CLEAR     18  12  79 CALM      30.03R
WALSENBURG     FAIR      30   7  37 SW8       30.00S WCI  23
TRINIDAD       CLEAR     17   7  64 W3        30.01R
$$

COZ042>045-048>051-090-091-231500-
...NORTHEAST COLORADO...

CITY           SKY/WX    TMP DP  RH WIND       PRES   REMARKS
GREELEY ARPT   MOCLDY    12   9  87 SW6       30.08R FOG     WCI   3
AKRON          CLEAR     15  13  91 NW6       30.07R FOG     WCI   6
BURLINGTON     CLEAR     11   5  77 W6        30.10R WCI   1
WRAY           FAIR      16  12  86 W5        30.13S WCI   9
YUMA           NOT AVBL
STERLING       FAIR      12  10  92 CALM      30.09S FOG
HOLYOKE        FAIR      18  12  79 N6        30.13S WCI   9
FORT MORGAN    FAIR      13  11  90 W6        30.09S FOG     WCI   4
$$

COZ086-089-092>099-231500-
...SOUTHEAST COLORADO...

CITY           SKY/WX    TMP DP  RH WIND       PRES   REMARKS
PUEBLO         CLEAR     12   8  84 N3        30.07R FOG
LA JUNTA       FOG       20  17  88 SE6       30.10R VSB 1/4 WCI  12
LAMAR          CLOUDY    24  22  91 SE3       30.11R FOG
SPRINGFIELD      N/A     17  17 100 NE5       30.09R WCI  10
$$





USA.gov is the U.S. government's official web portal to all federal, state and local government web resources and services.